AAL1604 KSAT-KMIA

Flight info

Callsign AAL1604
Flight time 2h 10m
Altitude 37000
Route SNIDR2 MOLLR PEKON J86 LEV Y290 DOWRY FROGZ5
Aircraft B38M/M-SDE1FGHILORVWXY/HB1

Departure

Time 2026-05-05 11:29
Airport San Antonio International Airport (KSAT)

Arrival

Time 2026-05-05 13:39
Airport Miami International Airport (KMIA)
Time Latitude Longitude Altitude Speed Heading
2026-05-05 11:18 29.52844 -98.47154 818 ft 0 kts 311°
2026-05-05 11:20 29.52836 -98.47145 818 ft 2 kts 311°
2026-05-05 11:20 29.52826 -98.47132 818 ft 2 kts 311°
2026-05-05 11:20 29.52816 -98.47119 818 ft 2 kts 336°
2026-05-05 11:20 29.52801 -98.47117 818 ft 2 kts 15°
2026-05-05 11:21 29.52792 -98.47121 818 ft 0 kts 39°
2026-05-05 11:21 29.52787 -98.47128 818 ft 0 kts 42°
2026-05-05 11:25 29.52805 -98.47107 818 ft 9 kts 46°
2026-05-05 11:25 29.52860 -98.47039 818 ft 8 kts 88°
2026-05-05 11:26 29.52808 -98.46956 818 ft 18 kts 133°
2026-05-05 11:26 29.52725 -98.46851 818 ft 16 kts 131°
2026-05-05 11:26 29.52654 -98.46832 818 ft 14 kts 210°
2026-05-05 11:26 29.52556 -98.46929 818 ft 19 kts 219°
2026-05-05 11:27 29.52456 -98.47028 818 ft 17 kts 221°
2026-05-05 11:27 29.52393 -98.47061 818 ft 6 kts 145°
2026-05-05 11:27 29.52364 -98.47027 818 ft 7 kts 132°
2026-05-05 11:27 29.52338 -98.46991 818 ft 2 kts 109°
2026-05-05 11:28 29.52352 -98.46965 818 ft 5 kts 41°
2026-05-05 11:28 29.52512 -98.46800 818 ft 61 kts 41°
2026-05-05 11:28 29.52998 -98.46326 818 ft 119 kts 41°
2026-05-05 11:28 29.53750 -98.45585 821 ft 165 kts 41°
2026-05-05 11:29 29.54695 -98.44679 1110 ft 181 kts 41°
2026-05-05 11:29 29.55695 -98.43752 1490 ft 196 kts 41°
2026-05-05 11:29 29.56765 -98.42705 1934 ft 207 kts 43°
2026-05-05 11:29 29.57872 -98.41602 2360 ft 220 kts 43°
2026-05-05 11:30 29.59061 -98.40411 2760 ft 235 kts 43°
2026-05-05 11:30 29.60298 -98.39075 3212 ft 250 kts 55°
2026-05-05 11:30 29.61032 -98.37255 3692 ft 259 kts 77°
2026-05-05 11:30 29.61427 -98.35210 4246 ft 267 kts 82°
2026-05-05 11:31 29.61752 -98.33137 4974 ft 269 kts 82°
2026-05-05 11:31 29.62082 -98.31007 5668 ft 272 kts 82°
2026-05-05 11:31 29.62418 -98.28863 6379 ft 275 kts 82°
2026-05-05 11:31 29.62748 -98.26698 7069 ft 278 kts 82°
2026-05-05 11:32 29.63028 -98.24503 7754 ft 280 kts 84°
2026-05-05 11:32 29.63281 -98.22266 8437 ft 283 kts 84°
2026-05-05 11:32 29.63525 -98.20050 9099 ft 286 kts 84°
2026-05-05 11:32 29.63761 -98.17765 9769 ft 289 kts 85°
2026-05-05 11:33 29.63985 -98.15479 10422 ft 292 kts 85°
2026-05-05 11:33 29.64206 -98.13141 11077 ft 294 kts 85°
2026-05-05 11:33 29.64420 -98.10812 11696 ft 298 kts 85°
2026-05-05 11:33 29.64635 -98.08397 12093 ft 310 kts 85°
2026-05-05 11:34 29.64859 -98.05872 12373 ft 326 kts 85°
2026-05-05 11:34 29.65096 -98.03249 12624 ft 341 kts 85°
2026-05-05 11:34 29.65226 -98.00442 12877 ft 356 kts 91°
2026-05-05 11:34 29.65249 -97.97570 13231 ft 366 kts 91°
2026-05-05 11:35 29.65278 -97.94637 13810 ft 370 kts 91°
2026-05-05 11:35 29.65295 -97.91691 14333 ft 374 kts 92°
2026-05-05 11:35 29.65307 -97.88657 14885 ft 378 kts 92°
2026-05-05 11:35 29.65329 -97.85635 15401 ft 383 kts 91°
2026-05-05 11:36 29.65360 -97.82586 15907 ft 387 kts 91°
2026-05-05 11:36 29.65391 -97.79469 16397 ft 392 kts 92°
2026-05-05 11:36 29.65421 -97.76322 16881 ft 396 kts 92°
2026-05-05 11:36 29.65452 -97.73165 17346 ft 400 kts 92°
2026-05-05 11:37 29.65486 -97.69933 17806 ft 405 kts 92°
2026-05-05 11:37 29.65520 -97.66710 18247 ft 409 kts 92°
2026-05-05 11:37 29.65555 -97.63397 18687 ft 413 kts 92°
2026-05-05 11:37 29.65590 -97.60078 19112 ft 417 kts 92°
2026-05-05 11:38 29.65625 -97.56734 19530 ft 421 kts 92°
2026-05-05 11:38 29.65660 -97.53372 19933 ft 425 kts 92°
2026-05-05 11:38 29.65695 -97.49971 20327 ft 429 kts 92°
2026-05-05 11:38 29.65729 -97.46512 20720 ft 433 kts 91°
2026-05-05 11:39 29.65762 -97.43063 21092 ft 437 kts 91°
2026-05-05 11:39 29.65796 -97.39566 21471 ft 441 kts 91°
2026-05-05 11:39 29.65828 -97.36003 21840 ft 445 kts 91°
2026-05-05 11:39 29.65861 -97.32472 22198 ft 448 kts 92°
2026-05-05 11:40 29.65894 -97.28865 22538 ft 452 kts 92°
2026-05-05 11:40 29.65926 -97.25261 22874 ft 455 kts 92°
2026-05-05 11:40 29.65951 -97.21597 23200 ft 458 kts 92°
2026-05-05 11:40 29.65967 -97.17943 23497 ft 463 kts 91°
2026-05-05 11:41 29.65984 -97.14254 23752 ft 467 kts 90°
2026-05-05 11:41 29.66002 -97.10497 24057 ft 471 kts 90°
2026-05-05 11:41 29.66022 -97.06738 24375 ft 474 kts 89°
2026-05-05 11:41 29.66042 -97.02966 24703 ft 476 kts 88°
2026-05-05 11:42 29.66062 -96.99148 25051 ft 478 kts 87°
2026-05-05 11:42 29.66079 -96.95326 25405 ft 479 kts 86°
2026-05-05 11:42 29.66097 -96.91489 25668 ft 482 kts 86°
2026-05-05 11:42 29.66116 -96.87664 25965 ft 485 kts 86°
2026-05-05 11:43 29.66134 -96.83782 26242 ft 487 kts 86°
2026-05-05 11:43 29.66153 -96.79882 26513 ft 490 kts 86°
2026-05-05 11:43 29.66167 -96.75959 26774 ft 493 kts 86°
2026-05-05 11:43 29.66179 -96.72008 27049 ft 495 kts 86°
2026-05-05 11:44 29.66191 -96.68036 27302 ft 498 kts 86°
2026-05-05 11:44 29.66203 -96.64060 27553 ft 501 kts 86°
2026-05-05 11:44 29.66216 -96.60048 27796 ft 503 kts 86°
2026-05-05 11:44 29.66227 -96.56033 28043 ft 506 kts 86°
2026-05-05 11:45 29.66239 -96.51975 28284 ft 508 kts 85°
2026-05-05 11:45 29.66245 -96.47926 28514 ft 511 kts 86°
2026-05-05 11:45 29.66237 -96.43851 28759 ft 513 kts 86°
2026-05-05 11:45 29.66228 -96.39720 28985 ft 516 kts 86°
2026-05-05 11:46 29.66220 -96.35637 29205 ft 518 kts 86°
2026-05-05 11:46 29.66214 -96.31469 29399 ft 520 kts 86°
2026-05-05 11:46 29.66209 -96.27340 29601 ft 522 kts 86°
2026-05-05 11:46 29.66204 -96.23188 29780 ft 525 kts 86°
2026-05-05 11:47 29.66197 -96.18981 29997 ft 526 kts 86°
2026-05-05 11:47 29.66188 -96.14740 30237 ft 527 kts 86°
2026-05-05 11:47 29.66178 -96.10538 30490 ft 528 kts 86°
2026-05-05 11:47 29.66166 -96.06370 30737 ft 528 kts 86°
2026-05-05 11:48 29.66139 -95.97945 31221 ft 529 kts 86°
2026-05-05 11:48 29.66123 -95.93746 31491 ft 529 kts 86°
2026-05-05 11:48 29.66106 -95.89521 31726 ft 529 kts 86°
2026-05-05 11:49 29.66088 -95.85294 31950 ft 530 kts 86°
2026-05-05 11:49 29.66068 -95.81027 32174 ft 530 kts 86°
2026-05-05 11:49 29.66047 -95.76814 32445 ft 530 kts 86°
2026-05-05 11:49 29.66018 -95.72575 32618 ft 532 kts 86°
2026-05-05 11:50 29.65966 -95.68372 32889 ft 531 kts 86°
2026-05-05 11:50 29.65913 -95.64150 33118 ft 531 kts 86°
2026-05-05 11:50 29.65865 -95.59910 33339 ft 531 kts 86°
2026-05-05 11:50 29.65818 -95.55670 33555 ft 532 kts 86°
2026-05-05 11:51 29.65774 -95.51434 33752 ft 532 kts 86°
2026-05-05 11:51 29.65735 -95.47153 33996 ft 532 kts 85°
2026-05-05 11:51 29.65699 -95.42942 34230 ft 532 kts 85°
2026-05-05 11:51 29.65663 -95.38711 34459 ft 532 kts 85°
2026-05-05 11:52 29.65628 -95.34477 34686 ft 531 kts 86°
2026-05-05 11:52 29.65594 -95.30220 34880 ft 531 kts 86°
2026-05-05 11:52 29.65562 -95.25979 35088 ft 530 kts 86°
2026-05-05 11:52 29.65537 -95.21773 35281 ft 530 kts 86°
2026-05-05 11:53 29.65514 -95.17550 35490 ft 529 kts 86°
2026-05-05 11:53 29.65491 -95.13367 35670 ft 528 kts 85°
2026-05-05 11:53 29.65467 -95.09135 35868 ft 528 kts 85°
2026-05-05 11:53 29.65442 -95.04953 36032 ft 528 kts 86°
2026-05-05 11:54 29.65416 -95.00739 36214 ft 528 kts 85°
2026-05-05 11:54 29.65389 -94.96557 36425 ft 527 kts 85°
2026-05-05 11:54 29.65361 -94.92331 36608 ft 527 kts 85°
2026-05-05 11:54 29.65332 -94.88133 36783 ft 527 kts 85°
2026-05-05 11:55 29.65301 -94.83908 36902 ft 528 kts 85°
2026-05-05 11:55 29.65270 -94.79728 36905 ft 531 kts 85°
2026-05-05 11:55 29.65202 -94.71233 36906 ft 530 kts 85°
2026-05-05 11:56 29.65127 -94.62819 36909 ft 527 kts 85°
2026-05-05 11:56 29.65049 -94.54404 36911 ft 528 kts 85°
2026-05-05 11:57 29.64966 -94.46012 36908 ft 529 kts 85°
2026-05-05 11:57 29.64876 -94.37561 36903 ft 529 kts 85°
2026-05-05 11:58 29.64786 -94.29134 36899 ft 528 kts 86°
2026-05-05 11:58 29.64692 -94.20726 36899 ft 528 kts 86°
2026-05-05 11:59 29.64591 -94.12307 36899 ft 529 kts 86°
2026-05-05 11:59 29.64481 -94.03847 36899 ft 529 kts 86°
2026-05-05 12:00 29.64366 -93.95454 36899 ft 529 kts 86°
2026-05-05 12:00 29.64245 -93.86996 36899 ft 529 kts 86°
2026-05-05 12:01 29.64118 -93.78578 36902 ft 529 kts 86°
2026-05-05 12:01 29.63987 -93.70164 36912 ft 529 kts 86°
2026-05-05 12:02 29.63849 -93.61697 36922 ft 529 kts 86°
2026-05-05 12:02 29.63706 -93.53268 36924 ft 529 kts 86°
2026-05-05 12:03 29.63558 -93.44840 36921 ft 529 kts 86°
2026-05-05 12:03 29.63405 -93.36414 36918 ft 529 kts 86°
2026-05-05 12:04 29.63251 -93.27989 36917 ft 529 kts 86°
2026-05-05 12:04 29.63093 -93.19532 36918 ft 530 kts 86°
2026-05-05 12:05 29.62925 -93.11098 36925 ft 529 kts 86°
2026-05-05 12:05 29.62751 -93.02659 36926 ft 526 kts 87°
2026-05-05 12:06 29.62336 -92.94325 36924 ft 526 kts 96°
2026-05-05 12:06 29.61230 -92.86086 36926 ft 522 kts 96°
2026-05-05 12:07 29.60088 -92.77900 36926 ft 522 kts 96°
2026-05-05 12:07 29.58895 -92.69638 36926 ft 522 kts 97°
2026-05-05 12:08 29.57696 -92.61467 36927 ft 523 kts 97°
2026-05-05 12:08 29.56481 -92.53277 36936 ft 523 kts 97°
2026-05-05 12:09 29.55246 -92.45019 36945 ft 523 kts 97°
2026-05-05 12:09 29.54011 -92.36807 36954 ft 524 kts 97°
2026-05-05 12:10 29.52773 -92.28599 36953 ft 525 kts 98°
2026-05-05 12:10 29.51527 -92.20367 36954 ft 524 kts 98°
2026-05-05 12:11 29.50278 -92.12166 36954 ft 524 kts 98°
2026-05-05 12:11 29.49016 -92.03924 36954 ft 525 kts 98°
2026-05-05 12:12 29.47752 -91.95717 36954 ft 525 kts 98°
2026-05-05 12:12 29.46478 -91.87467 36956 ft 525 kts 98°
2026-05-05 12:13 29.45199 -91.79244 36966 ft 525 kts 97°
2026-05-05 12:13 29.43924 -91.71069 36975 ft 523 kts 98°
2026-05-05 12:14 29.42636 -91.62849 36982 ft 524 kts 98°
2026-05-05 12:14 29.41346 -91.54648 36982 ft 525 kts 98°
2026-05-05 12:15 29.40048 -91.46437 36982 ft 524 kts 98°
2026-05-05 12:15 29.38751 -91.38261 36982 ft 525 kts 98°
2026-05-05 12:16 29.37444 -91.30028 36981 ft 524 kts 98°
2026-05-05 12:16 29.36140 -91.21834 36982 ft 525 kts 98°
2026-05-05 12:17 29.34828 -91.13647 36983 ft 522 kts 99°
2026-05-05 12:17 29.33523 -91.05542 36985 ft 516 kts 99°
2026-05-05 12:18 29.32221 -90.97492 36989 ft 511 kts 99°
2026-05-05 12:18 29.30930 -90.89541 36990 ft 508 kts 99°
2026-05-05 12:19 29.29637 -90.81617 36992 ft 511 kts 100°
2026-05-05 12:19 29.28330 -90.73646 36991 ft 512 kts 99°
2026-05-05 12:20 29.27013 -90.65638 36992 ft 511 kts 99°
2026-05-05 12:20 29.25691 -90.57629 36995 ft 510 kts 99°
2026-05-05 12:21 29.24376 -90.49686 36998 ft 510 kts 99°
2026-05-05 12:21 29.23057 -90.41760 37001 ft 511 kts 99°
2026-05-05 12:22 29.21729 -90.33794 36999 ft 512 kts 100°
2026-05-05 12:22 29.20398 -90.25813 36998 ft 510 kts 100°
2026-05-05 12:23 29.19059 -90.17862 36999 ft 510 kts 102°
2026-05-05 12:23 29.16814 -90.10198 37002 ft 510 kts 110°
2026-05-05 12:24 29.14306 -90.02595 37000 ft 511 kts 112°
2026-05-05 12:24 29.11663 -89.95091 36999 ft 512 kts 113°
2026-05-05 12:25 29.08929 -89.87575 36999 ft 513 kts 113°
2026-05-05 12:25 29.06140 -89.80027 37000 ft 517 kts 114°
2026-05-05 12:26 29.03328 -89.72481 37000 ft 520 kts 114°
2026-05-05 12:26 29.00476 -89.64866 37000 ft 524 kts 114°
2026-05-05 12:27 28.97605 -89.57231 37000 ft 527 kts 114°
2026-05-05 12:27 28.94719 -89.49578 37000 ft 529 kts 113°
2026-05-05 12:28 28.91798 -89.41851 36999 ft 529 kts 113°
2026-05-05 12:28 28.88889 -89.34174 36999 ft 528 kts 114°
2026-05-05 12:29 28.85980 -89.26493 37000 ft 527 kts 114°
2026-05-05 12:29 28.83086 -89.18874 37000 ft 528 kts 114°
2026-05-05 12:30 28.80163 -89.11203 37000 ft 529 kts 114°
2026-05-05 12:30 28.77226 -89.03513 36999 ft 529 kts 114°
2026-05-05 12:31 28.74313 -88.95903 36999 ft 526 kts 115°
2026-05-05 12:31 28.71395 -88.88296 36999 ft 522 kts 115°
2026-05-05 12:32 28.68488 -88.80733 36999 ft 518 kts 115°
2026-05-05 12:32 28.65614 -88.73270 36998 ft 517 kts 115°
2026-05-05 12:33 28.62735 -88.65813 36995 ft 518 kts 115°
2026-05-05 12:33 28.59843 -88.58334 36994 ft 519 kts 115°
2026-05-05 12:34 28.56941 -88.50844 36994 ft 518 kts 115°
2026-05-05 12:34 28.54024 -88.43333 36997 ft 518 kts 115°
2026-05-05 12:35 28.51121 -88.35868 36999 ft 518 kts 115°
2026-05-05 12:35 28.48207 -88.28381 37000 ft 518 kts 116°
2026-05-05 12:36 28.45298 -88.20918 37000 ft 518 kts 116°
2026-05-05 12:36 28.42385 -88.13466 37000 ft 519 kts 116°
2026-05-05 12:37 28.39444 -88.05990 36999 ft 518 kts 117°
2026-05-05 12:37 28.36845 -87.98399 37001 ft 520 kts 109°
2026-05-05 12:38 28.34577 -87.90627 37000 ft 520 kts 109°
2026-05-05 12:38 28.32319 -87.82842 36999 ft 520 kts 109°
2026-05-05 12:39 28.30075 -87.75095 37000 ft 520 kts 109°
2026-05-05 12:39 28.27817 -87.67303 37000 ft 520 kts 109°
2026-05-05 12:40 28.25563 -87.59538 37000 ft 520 kts 109°
2026-05-05 12:40 28.23306 -87.51778 37000 ft 520 kts 109°
2026-05-05 12:41 28.21047 -87.44027 37000 ft 520 kts 109°
2026-05-05 12:41 28.18781 -87.36270 37000 ft 520 kts 109°
2026-05-05 12:42 28.16509 -87.28494 37000 ft 519 kts 109°
2026-05-05 12:42 28.14240 -87.20744 37000 ft 519 kts 109°
2026-05-05 12:43 28.11978 -87.13045 37000 ft 520 kts 109°
2026-05-05 12:43 28.09687 -87.05270 37007 ft 518 kts 110°
2026-05-05 12:44 28.07417 -86.97585 37018 ft 514 kts 111°
2026-05-05 12:44 28.05168 -86.89990 37030 ft 510 kts 111°
2026-05-05 12:45 28.02914 -86.82396 37039 ft 508 kts 111°
2026-05-05 12:45 28.00672 -86.74865 37045 ft 509 kts 111°
2026-05-05 12:46 27.98434 -86.67288 37051 ft 510 kts 111°
2026-05-05 12:46 27.96211 -86.59686 37056 ft 510 kts 111°
2026-05-05 12:47 27.93997 -86.52092 37062 ft 509 kts 111°
2026-05-05 12:47 27.91790 -86.44509 37068 ft 509 kts 111°
2026-05-05 12:48 27.89582 -86.36927 37073 ft 509 kts 111°
2026-05-05 12:48 27.87376 -86.29349 37073 ft 509 kts 111°
2026-05-05 12:49 27.85175 -86.21796 37073 ft 509 kts 111°
2026-05-05 12:49 27.82960 -86.14218 37073 ft 509 kts 111°
2026-05-05 12:50 27.80734 -86.06627 37073 ft 509 kts 111°
2026-05-05 12:50 27.78507 -85.99050 37073 ft 510 kts 111°
2026-05-05 12:51 27.76287 -85.91513 37073 ft 510 kts 111°
2026-05-05 12:51 27.74046 -85.83923 37073 ft 510 kts 111°
2026-05-05 12:52 27.71807 -85.76358 37073 ft 509 kts 111°
2026-05-05 12:52 27.69559 -85.68777 37073 ft 510 kts 111°
2026-05-05 12:53 27.67324 -85.61259 37073 ft 510 kts 111°
2026-05-05 12:53 27.65072 -85.53699 37073 ft 510 kts 111°
2026-05-05 12:54 27.61687 -85.42370 37073 ft 509 kts 111°
2026-05-05 12:55 27.59548 -85.34766 37072 ft 511 kts 107°
2026-05-05 12:55 27.58009 -85.26977 37073 ft 512 kts 104°
2026-05-05 12:56 27.56588 -85.19083 37073 ft 512 kts 103°
2026-05-05 12:56 27.55191 -85.11237 37073 ft 513 kts 104°
2026-05-05 12:57 27.53801 -85.03391 37073 ft 513 kts 104°
2026-05-05 12:57 27.52414 -84.95532 37073 ft 513 kts 105°
2026-05-05 12:58 27.51032 -84.87695 37073 ft 512 kts 105°
2026-05-05 12:58 27.49648 -84.79853 37073 ft 512 kts 105°
2026-05-05 12:59 27.48248 -84.72003 37073 ft 512 kts 105°
2026-05-05 12:59 27.46845 -84.64177 37073 ft 512 kts 105°
2026-05-05 13:00 27.44734 -84.52376 37073 ft 512 kts 105°
2026-05-05 13:01 27.41925 -84.36725 37073 ft 512 kts 105°
2026-05-05 13:01 27.40494 -84.28859 37073 ft 511 kts 105°
2026-05-05 13:02 27.39079 -84.21061 37073 ft 512 kts 105°
2026-05-05 13:02 27.37656 -84.13231 37073 ft 512 kts 105°
2026-05-05 13:03 27.36233 -84.05417 37073 ft 512 kts 105°
2026-05-05 13:03 27.34803 -83.97589 37072 ft 512 kts 105°
2026-05-05 13:04 27.33365 -83.89738 37070 ft 512 kts 105°
2026-05-05 13:04 27.31939 -83.81976 37069 ft 512 kts 105°
2026-05-05 13:05 27.30498 -83.74162 37067 ft 512 kts 105°
2026-05-05 13:05 27.29051 -83.66344 37068 ft 513 kts 105°
2026-05-05 13:06 27.27591 -83.58471 37065 ft 513 kts 105°
2026-05-05 13:06 27.26138 -83.50668 37064 ft 513 kts 105°
2026-05-05 13:07 27.24679 -83.42853 37064 ft 512 kts 105°
2026-05-05 13:07 27.23211 -83.35017 37064 ft 512 kts 105°
2026-05-05 13:08 27.21754 -83.27244 37063 ft 512 kts 106°
2026-05-05 13:08 27.20284 -83.19424 37064 ft 512 kts 106°
2026-05-05 13:09 27.18807 -83.11607 37063 ft 512 kts 106°
2026-05-05 13:09 27.17305 -83.03824 37061 ft 512 kts 107°
2026-05-05 13:10 27.15773 -82.96032 37059 ft 511 kts 106°
2026-05-05 13:10 27.14191 -82.88282 37052 ft 505 kts 113°
2026-05-05 13:11 27.11321 -82.81247 37057 ft 493 kts 125°
2026-05-05 13:11 27.07971 -82.74615 37050 ft 491 kts 127°
2026-05-05 13:12 27.04501 -82.68057 37046 ft 490 kts 128°
2026-05-05 13:12 27.00989 -82.61551 37045 ft 490 kts 128°
2026-05-05 13:13 26.97439 -82.55035 37045 ft 490 kts 127°
2026-05-05 13:13 26.93597 -82.48817 37046 ft 483 kts 134°
2026-05-05 13:14 26.89197 -82.43236 37046 ft 478 kts 140°
2026-05-05 13:14 26.84464 -82.38075 37045 ft 475 kts 143°
2026-05-05 13:15 26.79584 -82.33099 37045 ft 474 kts 144°
2026-05-05 13:15 26.74678 -82.28252 37048 ft 473 kts 145°
2026-05-05 13:16 26.69750 -82.23459 37049 ft 473 kts 145°
2026-05-05 13:16 26.67262 -82.21056 36573 ft 478 kts 145°
2026-05-05 13:16 26.64751 -82.18637 35838 ft 477 kts 145°
2026-05-05 13:17 26.62243 -82.16225 35115 ft 476 kts 146°
2026-05-05 13:17 26.59739 -82.13821 34390 ft 475 kts 146°
2026-05-05 13:17 26.57246 -82.11432 33666 ft 474 kts 146°
2026-05-05 13:17 26.54779 -82.09071 32947 ft 472 kts 145°
2026-05-05 13:18 26.52302 -82.06702 32223 ft 472 kts 144°
2026-05-05 13:18 26.49868 -82.04286 31501 ft 471 kts 143°
2026-05-05 13:18 26.47427 -82.01820 30769 ft 470 kts 142°
2026-05-05 13:18 26.45036 -81.99400 30048 ft 469 kts 142°
2026-05-05 13:19 26.42642 -81.96981 29326 ft 467 kts 141°
2026-05-05 13:19 26.40234 -81.94550 28597 ft 466 kts 141°
2026-05-05 13:19 26.37858 -81.92155 27875 ft 464 kts 141°
2026-05-05 13:19 26.35481 -81.89760 27150 ft 462 kts 140°
2026-05-05 13:20 26.33122 -81.87386 26479 ft 458 kts 140°
2026-05-05 13:20 26.30755 -81.85006 25822 ft 454 kts 140°
2026-05-05 13:20 26.28446 -81.82685 25176 ft 450 kts 140°
2026-05-05 13:20 26.26183 -81.80299 24520 ft 447 kts 134°
2026-05-05 13:21 26.24203 -81.77629 23895 ft 443 kts 126°
2026-05-05 13:21 26.22539 -81.74809 23326 ft 438 kts 120°
2026-05-05 13:21 26.21108 -81.71829 22747 ft 432 kts 116°
2026-05-05 13:21 26.19806 -81.68892 22179 ft 427 kts 115°
2026-05-05 13:22 26.18504 -81.65915 21597 ft 422 kts 115°
2026-05-05 13:22 26.17243 -81.63025 21026 ft 417 kts 115°
2026-05-05 13:22 26.15984 -81.60139 20448 ft 412 kts 115°
2026-05-05 13:22 26.14758 -81.57328 19879 ft 407 kts 115°
2026-05-05 13:23 26.13529 -81.54508 19302 ft 402 kts 115°
2026-05-05 13:23 26.12306 -81.51704 18720 ft 397 kts 115°
2026-05-05 13:23 26.11110 -81.48967 18152 ft 392 kts 115°
2026-05-05 13:23 26.09945 -81.46300 17650 ft 386 kts 115°
2026-05-05 13:24 26.08779 -81.43630 17148 ft 380 kts 115°
2026-05-05 13:24 26.07636 -81.41016 16648 ft 374 kts 115°
2026-05-05 13:24 26.06504 -81.38428 16146 ft 369 kts 115°
2026-05-05 13:24 26.05399 -81.35902 15668 ft 363 kts 115°
2026-05-05 13:25 26.04301 -81.33387 15189 ft 358 kts 115°
2026-05-05 13:25 26.03224 -81.30918 14713 ft 352 kts 115°
2026-05-05 13:25 26.02173 -81.28507 14241 ft 348 kts 115°
2026-05-05 13:25 26.01121 -81.26094 13765 ft 344 kts 115°
2026-05-05 13:26 26.00084 -81.23717 13291 ft 341 kts 115°
2026-05-05 13:26 25.99052 -81.21352 12819 ft 338 kts 116°
2026-05-05 13:26 25.98043 -81.19042 12372 ft 335 kts 116°
2026-05-05 13:26 25.97027 -81.16716 11920 ft 332 kts 116°
2026-05-05 13:27 25.96026 -81.14428 11469 ft 328 kts 116°
2026-05-05 13:27 25.95040 -81.12174 11110 ft 321 kts 116°
2026-05-05 13:27 25.94089 -81.10004 10860 ft 311 kts 116°
2026-05-05 13:27 25.93152 -81.07873 10607 ft 302 kts 116°
2026-05-05 13:28 25.92235 -81.05785 10345 ft 295 kts 116°
2026-05-05 13:28 25.91353 -81.03776 10025 ft 291 kts 116°
2026-05-05 13:28 25.90512 -81.01741 9760 ft 285 kts 112°
2026-05-05 13:28 25.89759 -80.99733 9408 ft 283 kts 112°
2026-05-05 13:29 25.89006 -80.97710 9129 ft 279 kts 112°
2026-05-05 13:29 25.88264 -80.95746 8882 ft 278 kts 112°
2026-05-05 13:29 25.87509 -80.93766 8633 ft 278 kts 112°
2026-05-05 13:29 25.86752 -80.91791 8382 ft 278 kts 112°
2026-05-05 13:30 25.86251 -80.90485 8217 ft 277 kts 112°
2026-05-05 13:30 25.85244 -80.87865 7996 ft 275 kts 112°
2026-05-05 13:30 25.84489 -80.85899 8008 ft 277 kts 112°
2026-05-05 13:30 25.83735 -80.83939 7939 ft 279 kts 112°
2026-05-05 13:31 25.82978 -80.81973 7669 ft 275 kts 112°
2026-05-05 13:31 25.82236 -80.80045 7403 ft 271 kts 112°
2026-05-05 13:31 25.81504 -80.78145 7105 ft 268 kts 112°
2026-05-05 13:31 25.80775 -80.76252 6806 ft 266 kts 112°
2026-05-05 13:32 25.80047 -80.74363 6505 ft 264 kts 112°
2026-05-05 13:32 25.79333 -80.72511 6207 ft 262 kts 112°
2026-05-05 13:32 25.78619 -80.70658 5907 ft 260 kts 112°
2026-05-05 13:32 25.77913 -80.68819 5607 ft 258 kts 110°
2026-05-05 13:33 25.77382 -80.66913 5302 ft 256 kts 100°
2026-05-05 13:33 25.77182 -80.64976 5004 ft 254 kts 89°
2026-05-05 13:33 25.77220 -80.63032 4709 ft 252 kts 86°
2026-05-05 13:33 25.77318 -80.61099 4409 ft 250 kts 85°
2026-05-05 13:34 25.77419 -80.59177 4125 ft 248 kts 85°
2026-05-05 13:34 25.77511 -80.57306 4002 ft 239 kts 86°
2026-05-05 13:34 25.77560 -80.56087 3984 ft 231 kts 88°
2026-05-05 13:34 25.77563 -80.53768 3723 ft 222 kts 88°
2026-05-05 13:35 25.77596 -80.52649 3529 ft 217 kts 86°
2026-05-05 13:35 25.77732 -80.50460 3127 ft 209 kts 84°
2026-05-05 13:35 25.77839 -80.48885 2919 ft 198 kts 85°
2026-05-05 13:35 25.77918 -80.47444 2883 ft 180 kts 85°
2026-05-05 13:36 25.77986 -80.46042 2653 ft 180 kts 85°
2026-05-05 13:36 25.78047 -80.44677 2448 ft 176 kts 85°
2026-05-05 13:36 25.78106 -80.43316 2211 ft 177 kts 86°
2026-05-05 13:36 25.78165 -80.41955 1970 ft 176 kts 86°
2026-05-05 13:37 25.78223 -80.40595 1729 ft 175 kts 86°
2026-05-05 13:37 25.78280 -80.39262 1489 ft 171 kts 86°
2026-05-05 13:37 25.78333 -80.38000 1283 ft 155 kts 86°
2026-05-05 13:37 25.78383 -80.36826 1067 ft 151 kts 85°
2026-05-05 13:38 25.78432 -80.35674 860 ft 149 kts 85°
2026-05-05 13:38 25.78481 -80.34517 659 ft 149 kts 86°
2026-05-05 13:38 25.78513 -80.33765 526 ft 149 kts 86°
2026-05-05 13:38 25.78579 -80.32223 270 ft 148 kts 86°
2026-05-05 13:39 25.78627 -80.31095 41 ft 144 kts 86°
2026-05-05 13:39 25.78679 -80.30073 16 ft 111 kts 84°
2026-05-05 13:39 25.78697 -80.29452 15 ft 49 kts 86°
2026-05-05 13:39 25.78724 -80.29279 15 ft 11 kts 69°
2026-05-05 13:40 25.78737 -80.29242 15 ft 1 kts 66°
2026-05-05 13:40 25.78741 -80.29234 15 ft 4 kts 63°
2026-05-05 13:40 25.78766 -80.29195 15 ft 2 kts 46°
2026-05-05 13:40 25.78767 -80.29194 15 ft 0 kts 46°
2026-05-05 13:41 25.78769 -80.29192 15 ft 0 kts 46°
2026-05-05 13:41 25.78771 -80.29188 15 ft 0 kts 45°
2026-05-05 13:41 25.78774 -80.29185 15 ft 3 kts 44°
2026-05-05 13:41 25.78817 -80.29105 15 ft 16 kts 78°
2026-05-05 13:42 25.78837 -80.28966 15 ft 20 kts 73°
2026-05-05 13:42 25.78864 -80.28805 15 ft 22 kts 90°
2026-05-05 13:42 25.78873 -80.28681 15 ft 16 kts 86°
2026-05-05 13:42 25.78880 -80.28532 15 ft 21 kts 90°
2026-05-05 13:43 25.78886 -80.28348 15 ft 27 kts 85°
2026-05-05 13:43 25.78894 -80.28203 15 ft 24 kts 89°
2026-05-05 13:43 25.78909 -80.28037 15 ft 12 kts 82°
2026-05-05 13:43 25.78961 -80.27998 15 ft 12 kts 344°
2026-05-05 13:44 25.79018 -80.28074 15 ft 10 kts 289°
2026-05-05 13:44 25.79057 -80.28156 15 ft 14 kts 303°
2026-05-05 13:44 25.79085 -80.28204 15 ft 11 kts 303°